This is the latest recevied weather packets stored in our database for station/object MIDVIL-WX. If no packets are shown the sender has not sent any weather packets the latest 10 day(s).
| Time | Temp. | Humidity | Pressure | Rain* | Wind** | Luminosity | Snow |
|---|---|---|---|---|---|---|---|
| 1777718725 | -0.56° C | 83% | 991.8 hPa | 0 mm | - | - | - |
| 1777717844 | -0.56° C | 87% | 992.2 hPa | 0 mm | - | - | - |
| 1777716926 | -0.56° C | 87% | 992.2 hPa | 0 mm | - | - | - |
| 1777716052 | -0.56° C | 87% | 992.2 hPa | 0 mm | - | - | - |
| 1777715125 | -0.56° C | 86% | 991.3 hPa | 0 mm | - | - | - |
| 1777713325 | 0° C | 87% | 991.6 hPa | 0 mm | - | - | - |
| 1777712452 | -0.56° C | 87% | 991.6 hPa | 0 mm | - | - | - |
| 1777711525 | 0° C | 83% | 991.3 hPa | 0 mm | - | - | - |
| 1777710644 | 0° C | 82% | 991.5 hPa | 0 mm | - | - | - |
| 1777709726 | 0° C | 82% | 991.5 hPa | 0 mm | - | - | - |
| 1777708854 | 0° C | 82% | 991.5 hPa | 0 mm | - | - | - |
| 1777707925 | 0° C | 77% | 990.9 hPa | 0 mm | - | - | - |
| 1777707039 | 0° C | 77% | 990.9 hPa | 0 mm | - | - | - |
| 1777706126 | 0° C | 77% | 990.9 hPa | 0 mm | - | - | - |
| 1777705251 | 0° C | 77% | 990.9 hPa | 0 mm | - | - | - |
| 1777704326 | 0° C | 75% | 992 hPa | 0 mm | - | - | - |
| 1777703446 | 0° C | 75% | 991.9 hPa | 0 mm | - | - | - |
| 1777702525 | 0.56° C | 75% | 991.9 hPa | 0 mm | - | - | - |
| 1777701659 | 0.56° C | 75% | 991.9 hPa | 0 mm | - | - | - |
| 1777700726 | 0.56° C | 74% | 991.1 hPa | 0 mm | - | - | - |
| 1777699844 | 0.56° C | 75% | 991.6 hPa | 0 mm | - | - | - |
| 1777698926 | 0.56° C | 75% | 991.6 hPa | 0 mm | - | - | - |
| 1777698053 | 1.11° C | 75% | 991.6 hPa | 0 mm | - | - | - |
| 1777697127 | 1.11° C | 69% | 991.1 hPa | 0 mm | - | - | - |
| 1777696243 | 1.11° C | 73% | 991.3 hPa | 0 mm | - | - | - |
* Rain latest hour (hover to see other rain measurements)
** Current wind speed in m/s (hover to see current wind gust speed)